STARLINK-34528

导读

STARLINK-34528是美国星链项目的卫星,于2025年6月23日发射升空,归属于SpaceX公司开发的星链卫星互联网星座。它主要服务于全球卫星宽带互联网项目,为全球不同地区提供高速低延迟的互联网覆盖,进一步扩充了星链星座的在轨卫星规模,推进星链全球组网进程。

Basic Information
目录编号:
64479
目录名称:
STARLINK-34528
国际标识:
2025-133H
轨道中心:
EARTH
卫星名称:
STARLINK-34528
卫星全名:
STARLINK-34528
卫星状态:
在轨 (已飞行438 天)
发射日期:
2025-06-23 UTC
国别 :
美国 (US)
星等 :
--
Orbit Information
数据来源 国际轨道数据
星历时间: 2026-09-04T04:29:40+0800
7小时前
查看轨道信息
半长轴: 6840.831km
偏心率: 0.0001181
轨道倾角: 53.160°
近地点辐角 87.471°
升交点赤经 3.745°
平近点角 272.643°
近地点: 461.886km
远地点: 463.502km
周期: 93.848分钟
每日圈数: 15.344034
Detailed Information
使用方式:
暂无
2D Orbit Map
3D Orbit Map
Orbit Altitude Analysis Chart
Orbit Inclination Analysis Chart
Orbit Comprehensive Analysis Chart
View Comprehensive Chart
Conjunction Data List
Event ID Objects TCA Miss Dist (km) Collision Risk Probability Collision Risk Index (CRI) Action
CDM_260904-043306-447906-489222
OBJECT S (64892)
2026-09-04T
04:33:13+0000
1.130 km
极远距离
1.722125E-5 中风险 0.6
CDM_260905-033406-447906-666721
2026-09-05T
03:34:07+0000
1.023 km
极远距离
1.480822E-5 中风险 0.58
CDM_260827-184705-896806-447921
2026-08-27T
18:47:25+0000
1.412 km
极远距离
7.077139E-6 低风险 0.52
CDM_260905-065606-447906-563221
2026-09-05T
06:56:23+0000
1.984 km
极远距离
2.574668E-6 低风险 0.43
CDM_260904-052006-447906-489222
OBJECT S (64892)
2026-09-04T
05:20:08+0000
2.498 km
极远距离
1.712942E-6 低风险 0.4
CDM_260905-042106-447906-666721
2026-09-05T
04:21:02+0000
2.502 km
极远距离
1.131212E-6 低风险 0.36
CDM_260905-010705-315806-447921
2026-09-05T
01:07:13+0000
2.920 km
极远距离
9.102046E-7 极低风险 0.34
CDM_260904-122905-353506-447921
2026-09-04T
12:29:39+0000
2.766 km
极远距离
4.795573E-7 极低风险 0.29